Regional Weather Roundup
Issued by NWS

Home | Current Version | Previous Version | Graphics & Text | Print | Product List | Glossary On
Versions: 1 2 3 4 5 6 7 8 9 10 11 12 13 14 15 16 17 18 19 20 21 22 23 24 25 26 27 28 29 30 31 32 33 34 35 36 37 38 39 40 41 42 43 44 45 46 47 48 49 50
811
ASUS43 KMKX 250421
RWRWI

WISCONSIN REGIONAL WEATHER ROUNDUP
NATIONAL WEATHER SERVICE MILWAUKEE/SULLIVAN WI
1100 PM CDT SUN SEP 24 2017

NOTE: "FAIR" INDICATES FEW OR NO CLOUDS BELOW 12,000 FEET WITH NO
SIGNIFICANT WEATHER AND/OR OBSTRUCTIONS TO VISIBILITY.

WIZ001-002-006>008-014>016-023>028-250500-
NORTHWEST WISCONSIN

CITY           SKY/WX    TMP DP  RH WIND       PRES   REMARKS
SUPERIOR ARPT  MOCLDY    65  65 100 CALM      29.86S
ASHLAND        CLOUDY    75  63  66 W7        29.89R
HAYWARD        CLOUDY    72  64  76 CALM      29.92S
SIREN          CLOUDY    68  66  95 S3        29.90S
CUMBERLAND     CLOUDY    72  63  73 S3        29.92S
RICE LAKE      CLOUDY    76  62  63 S6        29.93F
CHETEK         CLOUDY    75  64  67 W3        29.92R
LADYSMITH      CLEAR     73  60  63 S7        29.94F
EAU CLAIRE     CLEAR     77  62  59 S12       29.90S
MENOMONIE      PTCLDY    74  64  69 SW5       29.92R
NEW RICHMOND   MOCLDY    71  64  76 SW5       29.94R
OSCEOLA        CLOUDY    71  65  81 SW6       29.95R
$$

WIZ003>005-009-010-017-018-250500-
NORTH CENTRAL WISCONSIN

CITY           SKY/WX    TMP DP  RH WIND       PRES   REMARKS
MANITOWISH WTR CLEAR     68  61  77 S5        29.96
ARBOR VITAE    CLEAR     72  62  71 S5        29.97F
WOODRUFF       CLEAR     72  62  71 S5        29.97F
RHINELANDER    CLEAR     72  61  68 S5        29.99F
EAGLE RIVER    CLEAR     69  59  71 S3        29.98F
LAND O LAKES   CLEAR     70  61  72 S3        30.00S
PHILLIPS       CLOUDY    71  60  69 S8        29.94F
TOMAHAWK       CLEAR     62  58  88 CALM      29.98F
MEDFORD        CLEAR     65  60  82 S7        29.98S
MERRILL        CLEAR     64  61  91 CALM      29.98F
$$

WIZ029-030-035-036-043>047-250500-
CENTRAL WISCONSIN

CITY           SKY/WX    TMP DP  RH WIND       PRES   REMARKS
WAUSAU         CLEAR     71  60  68 CALM      29.97S
MOSINEE        CLEAR     68  59  73 S6        30.00S
MARSHFIELD     CLEAR     68  59  73 S6        29.97S
STEVENS POINT  CLEAR     70  58  66 S5        29.99S
WAUPACA        CLEAR     69  64  82 CALM      29.99S
WAUTOMA        CLEAR     65  63  93 CALM      29.99S
WISC RAPIDS    CLEAR     70  60  70 S3        29.99S
CAMP DOUGLAS   PTCLDY    65  62  89 S5        29.96F
$$

WIZ011>013-019>022-031-037>040-048>050-250500-
NORTHEAST WISCONSIN

CITY           SKY/WX    TMP DP  RH WIND       PRES   REMARKS
ANTIGO         CLEAR     66  61  84 S8        30.01S
SHAWANO        CLEAR     73  64  72 S5        29.97F
OCONTO         CLEAR     73  61  66 CALM      29.98S
STURGEON BAY   CLEAR     72  61  68 S8        30.00S
GREEN BAY      CLEAR     72  62  71 SW7       29.99S
MANITOWOC      CLEAR     70  61  73 S6        30.01S
APPLETON       CLEAR     73  61  64 S8        29.99S
CLINTONVILLE   CLEAR     70  63  78 S6        29.98F
OSHKOSH        CLEAR     68  62  81 S7        29.99S
$$

WIZ032>034-041-042-053>061-250500-
SOUTHWEST WISCONSIN

CITY           SKY/WX    TMP DP  RH WIND       PRES   REMARKS
LA CROSSE      CLEAR     76  64  66 S3        29.93S
SPARTA         CLEAR     77  62  58 S8        29.96S
VIROQUA        CLEAR     73  62  69 S6        29.98S
BOSCOBEL       CLEAR     69  64  84 CALM      29.96S
PRAIRIE DU CHI CLEAR     72  61  68 E3        29.96S
PLATTEVILLE    CLEAR     73  63  71 SE7       29.99S
$$

WIZ056-057-062-063-064-067-068-250500-
SOUTH CENTRAL WISCONSIN

CITY           SKY/WX    TMP DP  RH WIND       PRES   REMARKS
REEDSBURG      CLEAR     67  62  85 CALM      29.98S
BARABOO/DELLS  CLEAR     71  58  63 S5        29.99S
LONE ROCK      CLEAR     67  63  87 E5        29.97F
MINERAL POINT  CLEAR     72  63  73 SE5       30.00S
MADISON        CLEAR     75  61  61 S6        29.99S
MIDDLETON      CLEAR     66  63  90 CALM      30.00F
WATERTOWN      CLEAR     71  62  73 SE3       30.00F
MONROE         CLEAR     72  59  64 S7        30.00S
JANESVILLE     CLEAR     70  59  68 SE3       29.99F
$$

WIZ051-052-058>065-066-070>072-250500-
SOUTHEAST WISCONSIN

CITY           SKY/WX    TMP DP  RH WIND       PRES   REMARKS
MILWAUKEE      CLEAR     75  63  66 S6        30.01F
WAUKESHA       CLEAR     72  57  60 S6        30.02F
MILWAUKEE/TIMM CLEAR     73  55  53 S3        30.02S
RACINE         CLEAR     71  64  78 S3        30.03F
BURLINGTON     CLEAR     63  61  94 CALM      30.01F
KENOSHA        CLEAR     74  61  63 SE6       30.02S
FOND DU LAC    CLEAR     74  58  57 S8        30.00S
SHEBOYGAN      CLEAR     66  64  93 CALM      30.01S
WEST BEND        N/A     64  61  88 CALM      30.02S
JUNEAU         CLEAR     69  61  76 SE6       30.02S
$$

LSZ147-162-250500-
LAKE SUPERIOR

STATION/POSITION TIME  TEMP    WIND        PRES    WAVE
                       AIR SEA DIR/SP/G            HT/PER
                 (UTC) (F)     (DEG/KT/KT) (MB)    (FT/S)
W MID LAKE BUOY  0350   63 55  190/ 10/ 12 1010.3F   1
DEVILS ISLAND    0400   63     260/  4/  5 1011.8R
PORT WING        0340   67     110/  5/  6 1011.5F
SAXON HARBOR     0330   79     200/  6/ 12 1010.8S
$$

LMZ867-665-643>646-250500-
LAKE MICHIGAN

STATION/POSITION TIME  TEMP    WIND        PRES    WAVE
                       AIR SEA DIR/SP/G            HT/PER
                 (UTC) (F)     (DEG/KT/KT) (MB)    (FT/S)
S GREEN BAY BUOY 0400   74 69  180/ 10/ 14 1015.0
N MID LAKE BUOY  0350   70 67  170/ 14/ 16 1015.9F   1/ 4
NORTHPORT PIER   0340   74     170/  3/  9 1014.9F
KEWAUNEE LAKESHO 0354   65     180/  8/  8 1015.0F
SHEBOYGAN LAKESH 0400   72     200/  6/  7 1015.5F
PORT WASHINGTON  0340   71     170/  1/  2 1016.9F
ATWATER BUOY     0309   67 58  170/  6/  6 1016.4F
MILWAUKEE LAKESH 0400   70     120/  1/  2   N/A
S MID LAKE BUOY  0350   74 71   90/  8/ 10 1016.3F   0
KENOSHA   LAKESH 0400   76     170/ 11/ 12 1015.9
$$

TC  - TEMPERATURE IN CELSIUS
VSB - VISIBILITY IN STATUTE MILES
WCI - WIND CHILL INDEX
HX  - HEAT INDEX





USA.gov is the U.S. government's official web portal to all federal, state and local government web resources and services.